| time (UTC) | temp C | wind direction | speed KPH | gust KPH | rain 1hr cm | rain 24hr cm | rain mn cm | humidity % | barometer mb |
| 20260505140525 | 11 | 278 | 6.4 | 6.4 | 0.00 | 0.00 | 0.00 | 56 | 1006.4 |
| 20260505124938 | 10 | 303 | 0.0 | 4.8 | 0.00 | 0.00 | 0.00 | 58 | 1005.8 |
| 20260505124435 | 10 | 306 | 3.2 | 3.2 | 0.00 | 0.00 | 0.00 | 59 | 1006.2 |
| 20260505123931 | 10 | 70 | 0.0 | 3.2 | 0.00 | 0.00 | 0.00 | 59 | 1005.3 |
| 20260505123428 | 10 | 107 | 1.6 | 4.8 | 0.00 | 0.00 | 0.00 | 59 | 1005.3 |
| 20260505122923 | 11 | 148 | 3.2 | 3.2 | 0.00 | 0.00 | 0.00 | 58 | 1004.9 |
| 20260505122421 | 10 | 43 | 0.0 | 1.6 | 0.00 | 0.00 | 0.00 | 59 | 1004.9 |
| 20260505121917 | 10 | 45 | 3.2 | 3.2 | 0.00 | 0.00 | 0.00 | 59 | 1005.0 |
| 20260505121415 | 10 | 81 | 4.8 | 4.8 | 0.00 | 0.00 | 0.00 | 58 | 1005.0 |
| 20260505120910 | 10 | 34 | 0.0 | 6.4 | 0.00 | 0.00 | 0.00 | 58 | 1005.2 |
| 20260505120407 | 10 | 45 | 0.0 | 3.2 | 0.00 | 0.00 | 0.00 | 58 | 1005.1 |
| 20260505115906 | 10 | 56 | 1.6 | 9.7 | 0.00 | 0.00 | 0.00 | 56 | 1005.0 |
| 20260505115403 | 10 | 32 | 1.6 | 1.6 | 0.00 | 0.00 | 0.00 | 56 | 1005.0 |
| 20260505114901 | 10 | 25 | 3.2 | 3.2 | 0.00 | 0.00 | 0.00 | 56 | 1004.6 |
| 20260505114357 | 10 | 26 | 3.2 | 3.2 | 0.00 | 0.00 | 0.00 | 57 | 1004.6 |
| 20260505113853 | 10 | 18 | 1.6 | 4.8 | 0.00 | 0.00 | 0.00 | 55 | 1004.3 |
| 20260505113350 | 11 | 34 | 3.2 | 11.3 | 0.00 | 0.00 | 0.00 | 57 | 1004.2 |
| 20260505112845 | 11 | 28 | 4.8 | 6.4 | 0.00 | 0.00 | 0.00 | 63 | 1004.4 |
| 20260505112344 | 11 | 271 | 6.4 | 6.4 | 0.00 | 0.00 | 0.00 | 60 | 1004.3 |
| 20260505111839 | 11 | 285 | 3.2 | 6.4 | 0.00 | 0.00 | 0.00 | 61 | 1004.1 |
| 20260505111334 | 11 | 308 | 6.4 | 9.7 | 0.00 | 0.00 | 0.00 | 60 | 1003.6 |
| 20260505110831 | 11 | 282 | 4.8 | 4.8 | 0.00 | 0.00 | 0.00 | 62 | 1003.4 |
| 20260505110328 | 11 | 273 | 3.2 | 9.7 | 0.00 | 0.00 | 0.00 | 61 | 1003.5 |
| 20260505101803 | 11 | 282 | 3.2 | 6.4 | 0.00 | 0.00 | 0.00 | 61 | 1002.8 |
| 20260505101258 | 11 | 285 | 8.0 | 11.3 | 0.00 | 0.00 | 0.00 | 61 | 1002.9 |
| 20260505100755 | 12 | 277 | 4.8 | 9.7 | 0.00 | 0.00 | 0.00 | 62 | 1002.5 |
| 20260505100251 | 12 | 261 | 6.4 | 12.9 | 0.00 | 0.00 | 0.00 | 61 | 1002.2 |
| 20260505095747 | 12 | 278 | 3.2 | 6.4 | 0.00 | 0.00 | 0.00 | 63 | 1002.2 |
| 20260505095245 | 12 | 282 | 3.2 | 9.7 | 0.00 | 0.00 | 0.00 | 63 | 1002.4 |
| 20260505094740 | 12 | 236 | 8.0 | 9.7 | 0.00 | 0.00 | 0.00 | 63 | 1002.5 |
| 20260505094237 | 12 | 268 | 9.7 | 11.3 | 0.00 | 0.00 | 0.00 | 62 | 1002.4 |
| 20260505093733 | 12 | 279 | 8.0 | 12.9 | 0.00 | 0.00 | 0.00 | 63 | 1002.2 |
| 20260505093231 | 12 | 266 | 8.0 | 11.3 | 0.00 | 0.00 | 0.00 | 64 | 1001.9 |
| 20260505092728 | 12 | 256 | 8.0 | 11.3 | 0.00 | 0.00 | 0.00 | 64 | 1001.9 |
| 20260505092226 | 12 | 266 | 4.8 | 14.5 | 0.00 | 0.00 | 0.00 | 64 | 1001.7 |
| 20260505091723 | 12 | 247 | 6.4 | 6.4 | 0.00 | 0.00 | 0.00 | 64 | 1001.7 |
| 20260505091221 | 12 | 288 | 9.7 | 11.3 | 0.00 | 0.00 | 0.00 | 64 | 1001.7 |
| 20260505090718 | 12 | 300 | 6.4 | 9.7 | 0.00 | 0.00 | 0.00 | 64 | 1001.8 |
| 20260505090217 | 12 | 282 | 6.4 | 9.7 | 0.00 | 0.00 | 0.00 | 64 | 1001.5 |
| 20260505085714 | 12 | 285 | 6.4 | 6.4 | 0.00 | 0.00 | 0.00 | 64 | 1001.7 |
| 20260505085212 | 12 | 268 | 4.8 | 12.9 | 0.00 | 0.00 | 0.00 | 62 | 1001.3 |
| 20260505084709 | 12 | 270 | 4.8 | 9.7 | 0.00 | 0.00 | 0.00 | 61 | 1001.2 |
| 20260505084208 | 12 | 282 | 8.0 | 11.3 | 0.00 | 0.00 | 0.00 | 60 | 1001.4 |
| 20260505083704 | 12 | 284 | 4.8 | 9.7 | 0.00 | 0.00 | 0.00 | 59 | 1001.3 |
| 20260505083201 | 13 | 264 | 8.0 | 9.7 | 0.00 | 0.00 | 0.00 | 58 | 1001.0 |
| 20260505082657 | 13 | 256 | 8.0 | 9.7 | 0.00 | 0.00 | 0.00 | 57 | 1001.2 |
| 20260505082154 | 13 | 274 | 9.7 | 11.3 | 0.00 | 0.00 | 0.00 | 55 | 1001.1 |
| 20260505081650 | 13 | 278 | 6.4 | 9.7 | 0.00 | 0.00 | 0.00 | 55 | 1000.9 |
| 20260505081148 | 13 | 287 | 8.0 | 11.3 | 0.00 | 0.00 | 0.00 | 55 | 1001.1 |
| 20260505080645 | 13 | 235 | 3.2 | 11.3 | 0.00 | 0.00 | 0.00 | 55 | 1000.7 |
| 20260505080140 | 13 | 260 | 11.3 | 16.1 | 0.00 | 0.00 | 0.00 | 54 | 1000.9 |
| 20260505075637 | 13 | 276 | 4.8 | 9.7 | 0.00 | 0.00 | 0.00 | 56 | 1000.7 |
| 20260505075133 | 13 | 294 | 6.4 | 12.9 | 0.00 | 0.00 | 0.00 | 55 | 1000.9 |
| 20260505074630 | 14 | 293 | 3.2 | 4.8 | 0.00 | 0.00 | 0.00 | 57 | 1000.5 |
| 20260505074127 | 14 | 307 | 4.8 | 11.3 | 0.00 | 0.00 | 0.00 | 58 | 1000.7 |
| 20260505073625 | 14 | 307 | 9.7 | 11.3 | 0.00 | 0.00 | 0.00 | 59 | 1000.5 |
| 20260505073123 | 14 | 287 | 1.6 | 11.3 | 0.00 | 0.00 | 0.00 | 63 | 1000.3 |
| 20260505072618 | 14 | 287 | 4.8 | 11.3 | 0.00 | 0.00 | 0.00 | 64 | 1000.4 |
| 20260505072115 | 15 | 302 | 3.2 | 11.3 | 0.00 | 0.00 | 0.00 | 65 | 1000.6 |
| 20260505071610 | 15 | 274 | 6.4 | 9.7 | 0.00 | 0.00 | 0.00 | 66 | 1000.2 |
| 20260505071109 | 15 | 273 | 8.0 | 17.7 | 0.00 | 0.00 | 0.00 | 67 | 1000.2 |
| 20260505070606 | 15 | 244 | 9.7 | 12.9 | 0.00 | 0.00 | 0.00 | 69 | 1000.4 |
| 20260505065558 | 15 | 273 | 3.2 | 9.7 | 0.00 | 0.00 | 0.00 | 73 | 1000.0 |
| 20260505065055 | 15 | 213 | 9.7 | 11.3 | 0.00 | 0.00 | 0.00 | 73 | 1000.1 |
| 20260505064551 | 15 | 232 | 6.4 | 11.3 | 0.00 | 0.00 | 0.00 | 74 | 1000.3 |
| 20260505064050 | 15 | 218 | 8.0 | 12.9 | 0.00 | 0.00 | 0.00 | 73 | 1000.0 |
| 20260505063547 | 15 | 216 | 12.9 | 16.1 | 0.00 | 0.00 | 0.00 | 73 | 1000.2 |
| 20260505063043 | 15 | 259 | 8.0 | 9.7 | 0.00 | 0.00 | 0.00 | 72 | 1000.3 |
| 20260505062539 | 15 | 251 | 6.4 | 11.3 | 0.00 | 0.00 | 0.00 | 72 | 1000.2 |
| 20260505062037 | 15 | 241 | 11.3 | 12.9 | 0.00 | 0.00 | 0.00 | 71 | 1000.2 |
| 20260505061534 | 15 | 257 | 8.0 | 9.7 | 0.00 | 0.00 | 0.00 | 71 | 1000.0 |
| 20260505061032 | 15 | 236 | 6.4 | 11.3 | 0.00 | 0.00 | 0.00 | 71 | 1000.0 |
| 20260505060529 | 16 | 256 | 6.4 | 9.7 | 0.00 | 0.00 | 0.00 | 70 | 999.4 |
| 20260505060026 | 16 | 259 | 8.0 | 9.7 | 0.00 | 0.00 | 0.00 | 70 | 999.6 |
| 20260505055521 | 16 | 282 | 11.3 | 14.5 | 0.00 | 0.00 | 0.00 | 69 | 999.7 |
| 20260505055018 | 16 | 282 | 8.0 | 16.1 | 0.00 | 0.00 | 0.00 | 69 | 999.5 |
| 20260505054516 | 16 | 280 | 6.4 | 11.3 | 0.00 | 0.00 | 0.00 | 69 | 999.7 |
| 20260505054014 | 16 | 267 | 12.9 | 17.7 | 0.00 | 0.00 | 0.00 | 68 | 999.7 |
| 20260505053510 | 16 | 259 | 14.5 | 16.1 | 0.00 | 0.00 | 0.00 | 67 | 999.9 |
| 20260505053007 | 16 | 250 | 14.5 | 16.1 | 0.00 | 0.00 | 0.00 | 67 | 999.9 |
| 20260505052504 | 16 | 251 | 16.1 | 16.1 | 0.00 | 0.00 | 0.00 | 66 | 999.7 |
| 20260505052001 | 17 | 234 | 14.5 | 14.5 | 0.00 | 0.00 | 0.00 | 66 | 999.6 |
| 20260505051458 | 17 | 226 | 19.3 | 22.5 | 0.00 | 0.00 | 0.00 | 65 | 999.6 |
| 20260505050956 | 17 | 220 | 19.3 | 29.0 | 0.00 | 0.00 | 0.00 | 64 | 999.6 |
| 20260505050454 | 17 | 314 | 12.9 | 16.1 | 0.00 | 0.00 | 0.00 | 63 | 999.8 |
| 20260505041422 | 18 | 218 | 14.5 | 22.5 | 0.00 | 0.00 | 0.00 | 60 | 999.3 |
| 20260505040919 | 18 | 227 | 11.3 | 17.7 | 0.00 | 0.00 | 0.00 | 60 | 999.0 |
| 20260505040416 | 18 | 239 | 12.9 | 25.7 | 0.00 | 0.00 | 0.00 | 59 | 999.0 |
| 20260505035913 | 18 | 211 | 17.7 | 24.1 | 0.00 | 0.00 | 0.00 | 58 | 999.2 |
| 20260505035409 | 18 | 242 | 11.3 | 17.7 | 0.00 | 0.00 | 0.00 | 57 | 998.9 |
| 20260505034906 | 18 | 236 | 12.9 | 17.7 | 0.00 | 0.00 | 0.00 | 54 | 998.8 |
| 20260505034403 | 18 | 245 | 12.9 | 17.7 | 0.00 | 0.00 | 0.00 | 53 | 998.9 |
| 20260505033900 | 18 | 290 | 14.5 | 20.9 | 0.00 | 0.00 | 0.00 | 53 | 999.4 |
| 20260505033357 | 18 | 286 | 6.4 | 12.9 | 0.00 | 0.00 | 0.00 | 54 | 999.4 |
| 20260505032855 | 18 | 285 | 14.5 | 20.9 | 0.00 | 0.00 | 0.00 | 53 | 998.5 |
| 20260505032351 | 18 | 229 | 16.1 | 35.4 | 0.00 | 0.00 | 0.00 | 52 | 998.2 |
| 20260505031848 | 18 | 220 | 14.5 | 27.4 | 0.00 | 0.00 | 0.00 | 52 | 998.3 |
| 20260505031345 | 18 | 248 | 20.9 | 27.4 | 0.00 | 0.00 | 0.00 | 52 | 998.0 |
| 20260505030842 | 18 | 251 | 17.7 | 22.5 | 0.00 | 0.00 | 0.00 | 55 | 997.7 |
| 20260505030338 | 19 | 223 | 20.9 | 29.0 | 0.00 | 0.00 | 0.00 | 56 | 997.3 |
| 20260505025833 | 19 | 212 | 12.9 | 25.7 | 0.00 | 0.00 | 0.00 | 56 | 997.4 |
| 20260505025331 | 19 | 254 | 12.9 | 16.1 | 0.00 | 0.00 | 0.00 | 58 | 997.7 |
| 20260505024830 | 20 | 196 | 17.7 | 25.7 | 0.00 | 0.00 | 0.00 | 55 | 997.7 |
| 20260505024327 | 20 | 173 | 22.5 | 27.4 | 0.00 | 0.00 | 0.00 | 54 | 998.0 |
| 20260505023824 | 20 | 300 | 20.9 | 25.7 | 0.00 | 0.00 | 0.00 | 57 | 998.3 |
| 20260505023321 | 20 | 219 | 17.7 | 27.4 | 0.00 | 0.00 | 0.00 | 58 | 998.2 |
| 20260505022818 | 20 | 276 | 17.7 | 27.4 | 0.00 | 0.00 | 0.00 | 58 | 998.3 |
| 20260505022315 | 20 | 246 | 12.9 | 24.1 | 0.00 | 0.00 | 0.00 | 57 | 998.2 |
| 20260505021812 | 20 | 235 | 22.5 | 24.1 | 0.00 | 0.00 | 0.00 | 57 | 997.8 |
| 20260505021309 | 20 | 238 | 22.5 | 30.6 | 0.00 | 0.00 | 0.00 | 56 | 997.7 |
| 20260505020805 | 20 | 234 | 12.9 | 27.4 | 0.00 | 0.00 | 0.00 | 55 | 997.5 |
| 20260505020300 | 20 | 206 | 12.9 | 22.5 | 0.00 | 0.00 | 0.00 | 55 | 997.9 |
| 20260505015758 | 20 | 218 | 12.9 | 25.7 | 0.00 | 0.00 | 0.00 | 54 | 997.9 |
| 20260505015255 | 20 | 247 | 14.5 | 17.7 | 0.00 | 0.00 | 0.00 | 54 | 998.0 |
| 20260505014752 | 20 | 249 | 19.3 | 22.5 | 0.00 | 0.00 | 0.00 | 53 | 998.0 |
| 20260505014249 | 20 | 225 | 14.5 | 20.9 | 0.00 | 0.00 | 0.00 | 52 | 998.0 |
| 20260505013745 | 20 | 226 | 14.5 | 16.1 | 0.00 | 0.00 | 0.00 | 51 | 997.9 |
| 20260505013242 | 20 | 221 | 14.5 | 24.1 | 0.00 | 0.00 | 0.00 | 49 | 997.9 |
| 20260505012740 | 20 | 226 | 11.3 | 12.9 | 0.00 | 0.00 | 0.00 | 47 | 997.5 |
| 20260505012238 | 19 | 233 | 14.5 | 17.7 | 0.00 | 0.00 | 0.00 | 46 | 997.5 |
| 20260505011733 | 19 | 202 | 6.4 | 12.9 | 0.00 | 0.00 | 0.00 | 46 | 997.4 |
| 20260505011231 | 19 | 218 | 6.4 | 12.9 | 0.00 | 0.00 | 0.00 | 45 | 997.1 |
| 20260505010726 | 20 | 250 | 6.4 | 11.3 | 0.00 | 0.00 | 0.00 | 44 | 997.3 |
| 20260505010223 | 20 | 296 | 6.4 | 14.5 | 0.00 | 0.00 | 0.00 | 44 | 997.3 |
| 20260505005719 | 20 | 209 | 8.0 | 11.3 | 0.00 | 0.00 | 0.00 | 43 | 997.1 |
| 20260505005216 | 20 | 220 | 9.7 | 12.9 | 0.00 | 0.00 | 0.00 | 43 | 997.3 |
| 20260505004714 | 20 | 230 | 6.4 | 14.5 | 0.00 | 0.00 | 0.00 | 43 | 997.0 |
| 20260505004210 | 20 | 224 | 6.4 | 12.9 | 0.00 | 0.00 | 0.00 | 43 | 997.2 |
| 20260505003707 | 20 | 219 | 6.4 | 11.3 | 0.00 | 0.00 | 0.00 | 42 | 996.9 |
| 20260505003205 | 20 | 226 | 6.4 | 12.9 | 0.00 | 0.00 | 0.00 | 42 | 997.0 |
| 20260505002701 | 20 | 230 | 6.4 | 12.9 | 0.00 | 0.00 | 0.00 | 41 | 997.1 |
| 20260505002159 | 21 | 212 | 9.7 | 14.5 | 0.00 | 0.00 | 0.00 | 40 | 997.1 |
| 20260505001655 | 21 | 229 | 9.7 | 11.3 | 0.00 | 0.00 | 0.00 | 40 | 997.1 |
| 20260505001153 | 21 | 209 | 9.7 | 11.3 | 0.00 | 0.00 | 0.00 | 39 | 997.2 |
| 20260505000650 | 22 | 216 | 11.3 | 20.9 | 0.00 | 0.00 | 0.00 | 37 | 997.2 |
| 20260505000148 | 22 | 250 | 9.7 | 16.1 | 0.00 | 0.00 | 0.00 | 36 | 997.5 |
| 20260504235644 | 22 | 246 | 16.1 | 17.7 | 0.00 | 0.00 | 0.00 | 36 | 997.3 |
| 20260504235140 | 22 | 219 | 8.0 | 16.1 | 0.00 | 0.00 | 0.00 | 35 | 997.6 |
| 20260504234638 | 22 | 221 | 8.0 | 11.3 | 0.00 | 0.00 | 0.00 | 35 | 997.5 |
| 20260504234135 | 22 | 213 | 9.7 | 12.9 | 0.00 | 0.00 | 0.00 | 35 | 997.4 |
| 20260504233631 | 23 | 227 | 17.7 | 20.9 | 0.00 | 0.00 | 0.00 | 34 | 997.6 |
| 20260504233127 | 23 | 256 | 17.7 | 22.5 | 0.00 | 0.00 | 0.00 | 34 | 997.7 |
| 20260504232625 | 22 | 240 | 12.9 | 14.5 | 0.00 | 0.00 | 0.00 | 33 | 997.8 |
| 20260504232122 | 22 | 212 | 9.7 | 16.1 | 0.00 | 0.00 | 0.00 | 33 | 997.8 |
| 20260504231618 | 23 | 265 | 17.7 | 20.9 | 0.00 | 0.00 | 0.00 | 33 | 998.0 |
| 20260504231115 | 23 | 285 | 11.3 | 24.1 | 0.00 | 0.00 | 0.00 | 33 | 998.0 |
| 20260504230610 | 23 | 293 | 12.9 | 24.1 | 0.00 | 0.00 | 0.00 | 32 | 998.1 |
| 20260504230110 | 23 | 255 | 14.5 | 30.6 | 0.00 | 0.00 | 0.00 | 32 | 998.0 |
| 20260504225607 | 23 | 275 | 16.1 | 29.0 | 0.00 | 0.00 | 0.00 | 31 | 998.1 |
| 20260504225104 | 23 | 239 | 12.9 | 30.6 | 0.00 | 0.00 | 0.00 | 32 | 998.2 |
| 20260504224600 | 23 | 190 | 11.3 | 17.7 | 0.00 | 0.00 | 0.00 | 31 | 998.4 |
| 20260504224057 | 23 | 267 | 16.1 | 37.0 | 0.00 | 0.00 | 0.00 | 29 | 998.2 |
| 20260504223554 | 23 | 242 | 12.9 | 20.9 | 0.00 | 0.00 | 0.00 | 29 | 998.3 |
| 20260504223050 | 23 | 235 | 19.3 | 37.0 | 0.00 | 0.00 | 0.00 | 28 | 998.3 |
| 20260504222547 | 23 | 249 | 19.3 | 43.5 | 0.00 | 0.00 | 0.00 | 28 | 998.5 |
| 20260504222044 | 23 | 219 | 29.0 | 40.2 | 0.00 | 0.00 | 0.00 | 28 | 998.3 |
| 20260504221542 | 23 | 257 | 6.4 | 17.7 | 0.00 | 0.00 | 0.00 | 30 | 998.6 |
| 20260504221038 | 23 | 285 | 16.1 | 25.7 | 0.00 | 0.00 | 0.00 | 30 | 998.6 |
| 20260504220534 | 23 | 277 | 9.7 | 16.1 | 0.00 | 0.00 | 0.00 | 30 | 998.8 |
| 20260504220032 | 23 | 275 | 30.6 | 37.0 | 0.00 | 0.00 | 0.00 | 29 | 998.7 |
| 20260504215528 | 23 | 280 | 25.7 | 43.5 | 0.00 | 0.00 | 0.00 | 28 | 998.7 |
| 20260504215026 | 23 | 287 | 29.0 | 35.4 | 0.00 | 0.00 | 0.00 | 30 | 998.9 |
| 20260504214522 | 23 | 267 | 17.7 | 41.8 | 0.00 | 0.00 | 0.00 | 29 | 998.8 |
| 20260504214018 | 23 | 287 | 14.5 | 27.4 | 0.00 | 0.00 | 0.00 | 28 | 999.0 |
| 20260504213514 | 23 | 252 | 27.4 | 40.2 | 0.00 | 0.00 | 0.00 | 28 | 999.0 |
| 20260504213012 | 23 | 281 | 24.1 | 37.0 | 0.00 | 0.00 | 0.00 | 27 | 999.2 |
| 20260504212508 | 23 | 251 | 14.5 | 37.0 | 0.00 | 0.00 | 0.00 | 28 | 999.3 |
| 20260504212005 | 24 | 289 | 27.4 | 37.0 | 0.00 | 0.00 | 0.00 | 29 | 999.2 |
| 20260504211502 | 24 | 288 | 19.3 | 25.7 | 0.00 | 0.00 | 0.00 | 28 | 998.9 |
| 20260504210959 | 23 | 273 | 17.7 | 27.4 | 0.00 | 0.00 | 0.00 | 29 | 999.3 |
| 20260504210456 | 23 | 328 | 24.1 | 27.4 | 0.00 | 0.00 | 0.00 | 28 | 999.2 |
| 20260504205953 | 24 | 257 | 19.3 | 24.1 | 0.00 | 0.00 | 0.00 | 28 | 999.0 |
| 20260504205450 | 23 | 270 | 16.1 | 35.4 | 0.00 | 0.00 | 0.00 | 30 | 999.0 |
| 20260504204948 | 23 | 273 | 27.4 | 41.8 | 0.00 | 0.00 | 0.00 | 28 | 999.2 |
| 20260504204446 | 23 | 335 | 19.3 | 35.4 | 0.00 | 0.00 | 0.00 | 29 | 999.3 |
| 20260504203945 | 23 | 321 | 9.7 | 37.0 | 0.00 | 0.00 | 0.00 | 30 | 999.3 |
| 20260504203442 | 24 | 335 | 12.9 | 37.0 | 0.00 | 0.00 | 0.00 | 29 | 999.3 |
| 20260504202938 | 24 | 288 | 29.0 | 37.0 | 0.00 | 0.00 | 0.00 | 27 | 999.2 |
| 20260504202435 | 24 | 84 | 17.7 | 48.3 | 0.00 | 0.00 | 0.00 | 26 | 999.5 |
| 20260504201932 | 24 | 256 | 17.7 | 35.4 | 0.00 | 0.00 | 0.00 | 26 | 999.3 |
| 20260504201429 | 24 | 235 | 12.9 | 30.6 | 0.00 | 0.00 | 0.00 | 26 | 999.4 |
| 20260504200927 | 24 | 290 | 11.3 | 27.4 | 0.00 | 0.00 | 0.00 | 27 | 999.4 |
| 20260504200423 | 24 | 277 | 30.6 | 51.5 | 0.00 | 0.00 | 0.00 | 25 | 999.6 |
| 20260504195920 | 24 | 228 | 19.3 | 25.7 | 0.00 | 0.00 | 0.00 | 27 | 999.5 |
| 20260504195416 | 24 | 232 | 24.1 | 37.0 | 0.00 | 0.00 | 0.00 | 26 | 999.5 |
| 20260504194913 | 23 | 230 | 14.5 | 27.4 | 0.00 | 0.00 | 0.00 | 28 | 999.5 |
| 20260504194408 | 23 | 245 | 25.7 | 48.3 | 0.00 | 0.00 | 0.00 | 26 | 999.7 |
| 20260504193905 | 24 | 248 | 22.5 | 35.4 | 0.00 | 0.00 | 0.00 | 28 | 999.4 |
| 20260504193402 | 24 | 284 | 24.1 | 37.0 | 0.00 | 0.00 | 0.00 | 25 | 999.6 |
| 20260504192901 | 24 | 232 | 22.5 | 49.9 | 0.00 | 0.00 | 0.00 | 26 | 999.6 |
| 20260504192358 | 24 | 257 | 12.9 | 38.6 | 0.00 | 0.00 | 0.00 | 28 | 999.6 |
| 20260504191856 | 24 | 232 | 19.3 | 24.1 | 0.00 | 0.00 | 0.00 | 25 | 999.8 |
| 20260504191354 | 24 | 294 | 12.9 | 25.7 | 0.00 | 0.00 | 0.00 | 25 | 999.8 |
| 20260504190849 | 24 | 246 | 30.6 | 35.4 | 0.00 | 0.00 | 0.00 | 24 | 999.7 |
| 20260504190345 | 23 | 292 | 12.9 | 35.4 | 0.00 | 0.00 | 0.00 | 23 | 999.8 |
| 20260504185842 | 23 | 278 | 20.9 | 33.8 | 0.00 | 0.00 | 0.00 | 24 | 999.8 |
| 20260504185339 | 23 | 247 | 16.1 | 30.6 | 0.00 | 0.00 | 0.00 | 23 | 999.9 |
| 20260504184835 | 23 | 277 | 25.7 | 49.9 | 0.00 | 0.00 | 0.00 | 22 | 1000.1 |
| 20260504184331 | 24 | 247 | 24.1 | 33.8 | 0.00 | 0.00 | 0.00 | 23 | 999.9 |
| 20260504183827 | 23 | 278 | 27.4 | 41.8 | 0.00 | 0.00 | 0.00 | 22 | 999.8 |
| 20260504183324 | 24 | 233 | 27.4 | 37.0 | 0.00 | 0.00 | 0.00 | 23 | 999.9 |
| 20260504182822 | 23 | 303 | 24.1 | 29.0 | 0.00 | 0.00 | 0.00 | 24 | 1000.0 |
| 20260504182319 | 23 | 220 | 22.5 | 53.1 | 0.00 | 0.00 | 0.00 | 22 | 1000.3 |
| 20260504181816 | 23 | 224 | 30.6 | 38.6 | 0.00 | 0.00 | 0.00 | 22 | 1000.3 |
| 20260504181314 | 23 | 224 | 12.9 | 24.1 | 0.00 | 0.00 | 0.00 | 24 | 1000.0 |
| 20260504180813 | 23 | 288 | 27.4 | 41.8 | 0.00 | 0.00 | 0.00 | 23 | 1000.4 |
| 20260504180311 | 23 | 285 | 17.7 | 25.7 | 0.00 | 0.00 | 0.00 | 23 | 1000.2 |
| 20260504175808 | 23 | 244 | 32.2 | 41.8 | 0.00 | 0.00 | 0.00 | 22 | 1000.4 |
| 20260504175305 | 23 | 182 | 29.0 | 30.6 | 0.00 | 0.00 | 0.00 | 24 | 1000.3 |
| 20260504174803 | 23 | 220 | 35.4 | 41.8 | 0.00 | 0.00 | 0.00 | 24 | 1000.5 |
| 20260504174300 | 23 | 235 | 20.9 | 27.4 | 0.00 | 0.00 | 0.00 | 26 | 1000.6 |
| 20260504173757 | 23 | 257 | 16.1 | 40.2 | 0.00 | 0.00 | 0.00 | 28 | 1000.7 |
| 20260504173254 | 22 | 312 | 12.9 | 25.7 | 0.00 | 0.00 | 0.00 | 27 | 1000.6 |
| 20260504172750 | 22 | 227 | 22.5 | 30.6 | 0.00 | 0.00 | 0.00 | 28 | 1001.1 |
| 20260504172247 | 22 | 217 | 20.9 | 30.6 | 0.00 | 0.00 | 0.00 | 27 | 1000.8 |
| 20260504171743 | 22 | 247 | 30.6 | 35.4 | 0.00 | 0.00 | 0.00 | 28 | 1001.1 |
| 20260504171240 | 22 | 256 | 20.9 | 27.4 | 0.00 | 0.00 | 0.00 | 26 | 1000.9 |
| 20260504170737 | 22 | 224 | 25.7 | 40.2 | 0.00 | 0.00 | 0.00 | 24 | 1001.0 |
| 20260504170235 | 22 | 235 | 30.6 | 41.8 | 0.00 | 0.00 | 0.00 | 23 | 1001.1 |
| 20260504160153 | 21 | 227 | 19.3 | 29.0 | 0.00 | 0.00 | 0.00 | 34 | 1001.8 |
| 20260504151120 | 19 | 183 | 11.3 | 25.7 | 0.00 | 0.00 | 0.00 | 45 | 1002.7 |
| 20260504150618 | 18 | 201 | 22.5 | 30.6 | 0.00 | 0.00 | 0.00 | 44 | 1002.5 |
| 20260504150115 | 18 | 269 | 17.7 | 24.1 | 0.00 | 0.00 | 0.00 | 47 | 1002.7 |